Погода в Батаюрте

Россия / Республика Дагестан     43°18′52″N   46°40′51″E
темп.,
°C
ветер,
м/с
пор.,
м/с
влажн.,
%
обл.,
%
осадки,
мм/ч
давл.,
гПа
погр.,
м
11 мая, вт
вт1100:00+8зюз226382 0.0 102120
03:00+7вюв016331 0.0 102010
06:00+9вюв39700 0.0 1018329
09:00+15вюв8104818 0.0 10171766
12:00+18вюв1111370 0.0 10151688
15:00+16вюв1113430 0.0 10141236
18:00+13вюв911560 0.0 1014813
21:00+10вюв59710 0.0 1015212
12 мая, ср
ср1200:00+8вюв238551 0.0 101439
03:00+7з22880 0.0 101521
06:00+9зсз22770 0.0 1016101
09:00+15ссз32570 0.0 1016717
12:00+19с22490 0.0 10151121
15:00+21св22440 0.0 10141328
18:00+17в46590 0.0 1015232
21:00+12вюв237611 0.0 101535
13 мая, чт
чт1300:00+12вюв227547 0.0 101424
03:00+11в22813 0.0 101324
06:00+13вюв23760 0.0 101491
09:00+20всв34540 0.0 1014520
12:00+24всв65490 0.0 1013885
15:00+23в55530 0.0 1013703
18:00+18в57675 0.0 1014261
21:00+13в12875 0.0 101420
14 мая, пт
пт1400:00+12в11895 0.0 101411
03:00+13вюв11885 0.0 101310
06:00+16в117529 0.0 101347
09:00+23св22574 0.0 1013485
12:00+29всв45391 0.0 1011962
15:00+30в10123480 0.0 1010942
18:00+24в815514 0.0 1010354
21:00+20вюв49595 0.0 1011127
15 мая, сб
сб1500:00+18вюв34621 0.0 101162
03:00+16в12680 0.0 101116
06:00+19с01640 0.0 101237
09:00+25св11500 0.0 1012488
12:00+30всв34303 0.0 10121241
15:00+30в88235 0.0 10111116
18:00+23в611400 0.0 1011197
21:00+19вюв3543100 0.0 101257